This demonstration page uses our WeatherBlox Daily Observations layout. Learn more.

Left ArrowRight Arrow

Hourly Observations for September 22, 2019

Temp ( °F °C ) Dew Point ( °F °C ) Humidity (%) Winds ( mph kmh ) Pressure ( in mb ) Visibility ( mi km ) Precip ( " mm )
12:53 am 00:53 Clear 64 17.8 59 15 84 84 Calm 30.20 1023 10 16 0.00 0.00
1:53 am 01:53 Clear 63 17.2 59 15 87 87 Calm 30.19 1022 10 16 0.00 0.00
2:53 am 02:53 Clear 63 17.2 59 15 87 87 Calm 30.19 1022 10 16 0.00 0.00
3:53 am 03:53 Clear 62 16.7 58 14.4 86 86 Calm 30.19 1022 10 16 0.00 0.00
4:53 am 04:53 Clear 59 15 57 13.9 93 93 Calm 30.19 1022 10 16 0.00 0.00
5:53 am 05:53 Clear 59 15 57 13.9 93 93 Calm 30.19 1023 10 16 0.00 0.00
6:53 am 06:53 Clear 58 14.4 56 13.3 93 93 Calm 30.21 1023 10 16 0.00 0.00
7:53 am 07:53 Sunny 58 14.4 56 13.3 93 93 Calm 30.21 1023 10 16 0.00 0.00
8:53 am 08:53 Sunny 64 17.8 59 15 84 84 Calm 30.24 1024 10 16 0.00 0.00
9:53 am 09:53 Sunny 71 21.7 61 16.1 71 71 Calm 30.25 1024 10 16 0.00 0.00
10:53 am 10:53 Sunny 76 24.4 61 16.1 60 60 Calm 30.24 1024 10 16 0.00 0.00
11:53 am 11:53 Sunny 79 26.1 60 15.6 52 52 Calm 30.22 1023 10 16 0.00 0.00
12:53 pm 12:53 Sunny 81 27.2 59 15 47 47 undefined N/A 30.19 1022 10 16 0.00 0.00
2:53 pm 14:53 Sunny 85 29.4 55 12.8 36 36 E 3 6 30.13 1020 10 16 0.00 0.00
3:53 pm 15:53 Sunny 86 30 53 11.7 32 32 SSW 8 13 30.11 1020 10 16 0.00 0.00
4:53 pm 16:53 Sunny 86 30 52 11.1 31 31 Calm 30.09 1019 10 16 0.00 0.00
5:53 pm 17:53 Sunny 87 30.6 52 11.1 30 30 Calm 30.09 1019 10 16 0.00 0.00
6:53 pm 18:53 Sunny 86 30 50 10 29 29 SE 6 9 30.09 1019 10 16 0.00 0.00
7:53 pm 19:53 Clear 76 24.4 58 14.4 54 54 Calm 30.10 1019 7 11 0.00 0.00
8:53 pm 20:53 Clear 70 21.1 60 15.6 71 71 Calm 30.11 1020 10 16 0.00 0.00
9:53 pm 21:53 Clear 69 20.6 60 15.6 73 73 Calm 30.12 1020 10 16 0.00 0.00
10:53 pm 22:53 Clear 67 19.4 59 15 76 76 NE 3 6 30.12 1020 10 16 0.00 0.00
11:53 pm 23:53 Clear 66 18.9 58 14.4 75 75 Calm 30.11 1020 10 16 0.00 0.00

Powered by AerisWeather